SCP
0 0 0 0 0 0 1 1 1 0 0 0 0 0 0 0 0 0 0 0 0 0 0 0 0 0 0 0 0 0 0 0
0 0 0 0 0 0 0 0 0 0 0 0 0 0 0 0 0 0 0 0 0 0 0 0 0 0 0 0 0 0 0 0
0 0 0 0 0 0 0 0 0 0 0 0 0 0 0 0 0 0 0 0 0 0 0 0 0 0 0 0 0 0 0 0
0 0 0 0 0 0 0 0 0 0 0 0 0 0 0 0 0 0 0 0 0 0 0 0 0 0 0 0 0 0 0 0
0 0 0 0 0 0 0 0 0 0 0 0 0 0 0 0 0 0 0 0 0 0 0 0 0 0 0 0 0 0 0 0
0 0 0 0 0 0 0 0 0 0 0 0 0 0 0 0 0 0 0 0 0 0 0 0 0 0 0 0 0 0 0 0
0 0 0 0 0 0 0 0 0 0 0 0 0 0 0 0 0 0 0 0 0 0 0 0 0 0 0 0 0 0 0 0
0 0 0 0 0 0 0 0 0 0 0 0 0 0 0 0 0 -0 0 0 0 0 0 0 0 0 0 0 0 0 0 0
0 0 0 0 0 0 0 0 0 0 0 0 0 0 0 0 -0 0 -0 -0 0 0 0 0 0 0 0 0 0 0 0 0
0 0 0 0 0 0 0 0 0 0 0 0 0 0 0 0 0 0 0 0 0 0 0 0 0 0 0 0 0 0 0 0
0 0 0 0 0 0 0 0 0 0 0 0 0 0 0 0 0 0 0 0 0 0 0 0 0 0 0 0 0 0 0 0
0 0 0 0 0 0 0 0 0 0 0 0 0 0 0 0 0 0 0 0 0 0 0 0 0 0 0 0 0 0 0 0
0 0 0 0 0 0 0 0 0 0 0 0 0 0 0 0 0 0 0 0 0 0 0 0 0 0 0 0 0 0 0 0
0 0 0 0 0 0 0 0 0 0 0 0 0 0 0 0 0 0 0 0 0 0 0 0 0 0 0 0 0 0 0 0
0 0 0 0 0 0 0 0 0 0 0 0 0 0 0 0 0 0 0 0 0 0 0 0 0 0 0 0 0 0 0 0
0 0 0 0 0 0 0 0 0 0 0 0 0 0 0 0 0 0 0 0 0 0 0 0 0 0 0 0 0 0 0 0
0 0 0 0 0 0 0 0 0 0 0 0 0 0 0 0 0 0 0 0 0 0 0 0 0 0 0 0 0 0 0 0
0 0 0 0 0 0 0 0 0 0 0 0 0 0 0 0 0 0 0 0 0 0 0 0 0 0 0 0 0 0 0 0
0 0 0 0 0 0 0 0 0 0 0 0 0 0 0 0 0 0 0 0 0 0 0 0 0 0 0 0 0 0 0 0
Wind_Speed_500mb
51 44 38 32 33 37 39 46 41 32 23 21 17 17 11 12 9 5 1 2 6 10 14 18 21 25 28 32 35 35 42 51
55 49 43 38 33 38 43 50 45 37 29 22 23 24 20 17 11 1 9 16 21 25 27 28 32 35 37 38 39 42 43 46
59 51 45 38 33 35 45 52 45 42 34 32 32 29 24 15 7 12 19 24 27 30 34 38 42 44 44 45 45 46 46 46
64 55 47 41 41 46 55 54 49 42 37 36 33 27 18 8 10 17 22 28 34 38 40 42 41 39 37 36 36 39 48 50
69 61 55 54 53 53 54 52 48 43 37 32 24 16 10 8 14 22 27 31 34 35 33 32 32 34 35 36 39 40 42 47
79 72 64 62 60 58 54 52 49 43 35 24 12 4 5 11 18 20 23 26 29 30 33 36 37 38 33 33 36 40 45 45
80 72 70 69 65 62 57 55 50 40 26 12 4 7 12 17 19 21 22 23 24 29 31 35 34 33 39 42 46 52 56 50
90 86 81 75 70 63 58 51 43 29 16 6 3 9 16 20 18 14 16 22 20 22 29 35 40 43 46 48 44 44 41 41
97 91 83 75 68 61 55 45 35 23 13 4 3 11 18 13 11 14 15 18 23 28 30 33 36 36 38 42 46 47 48 53
105 94 84 77 72 62 52 42 31 21 12 4 3 12 14 12 15 16 18 25 31 37 43 46 45 44 45 46 48 48 51 56
102 93 85 76 69 60 47 35 27 20 11 5 5 14 14 14 18 26 33 39 46 50 52 53 54 54 57 60 63 62 62 63
104 93 83 75 65 55 48 38 27 19 14 8 11 11 13 20 28 37 43 44 43 44 46 48 50 51 52 53 56 61 64 66
101 93 83 74 64 55 48 39 29 22 13 10 11 13 20 29 38 42 42 45 48 49 50 51 55 56 58 59 59 55 56 60
94 88 83 72 63 56 48 39 30 20 14 15 16 22 29 36 40 42 44 48 53 57 62 64 66 67 68 65 64 64 61 54
97 91 82 72 65 58 50 40 28 21 19 19 22 28 34 36 39 43 47 50 51 51 54 55 52 50 47 48 50 51 51 49
101 92 82 74 67 59 47 36 30 23 19 19 23 27 31 37 42 44 44 44 44 45 44 38 37 40 41 46 48 51 54 57
99 89 83 76 69 58 47 37 28 19 17 19 23 29 37 42 40 39 39 38 39 35 31 32 37 39 38 39 45 50 51 56
103 96 87 78 66 55 45 33 22 17 18 22 28 36 37 35 34 35 32 30 27 25 25 29 33 35 35 38 45 53 57 58
97 93 84 74 61 48 36 25 15 19 19 31 35 32 30 30 31 30 28 24 27 30 31 34 41 43 48 49 51 54 57 62
Wind_Direction_500mb
198 205 210 214 200 201 201 193 188 178 188 172 180 166 183 160 145 150 125 352 331 323 318 311 307 309 316 323 324 318 311 306
196 201 207 215 207 194 190 182 180 182 202 199 172 162 160 159 159 86 335 330 322 316 314 316 320 323 323 323 318 313 309 315
192 194 199 204 198 182 174 172 180 181 182 181 175 174 173 185 229 285 302 310 314 314 313 313 313 311 311 310 313 316 318 322
182 183 187 190 183 172 168 172 176 178 178 178 174 174 181 214 269 290 309 322 323 321 319 317 318 320 319 321 321 325 324 321
182 178 181 179 174 174 175 172 171 170 168 171 173 186 218 271 314 325 325 325 329 330 333 337 338 336 331 325 323 325 324 322
181 180 178 174 177 179 176 172 168 164 162 164 172 239 323 335 329 321 323 333 342 340 335 331 330 334 336 330 332 335 334 330
187 179 177 176 175 176 174 172 167 166 171 187 260 343 353 344 340 342 344 346 338 331 332 335 339 336 334 330 328 329 327 323
186 179 178 177 175 174 172 173 167 168 179 192 346 350 349 352 352 342 328 325 331 337 335 336 333 332 330 328 327 326 327 325
186 183 181 179 176 176 175 175 175 176 181 176 347 354 356 349 331 317 314 325 326 323 325 322 322 318 316 315 318 316 316 317
187 185 184 181 178 177 178 178 179 174 167 166 2 354 338 316 304 301 306 308 309 309 309 307 307 305 303 300 300 300 299 302
187 185 182 179 178 176 178 182 181 178 190 212 311 323 308 295 302 309 312 311 308 307 305 305 306 303 302 301 301 300 297 298
186 183 179 178 177 179 180 182 190 196 211 258 301 295 290 304 312 314 313 310 308 307 307 306 304 303 302 301 301 304 302 304
184 180 177 177 179 182 183 182 191 205 220 248 262 280 300 312 315 313 311 309 306 305 305 306 307 305 304 305 304 302 303 303
180 178 178 180 182 181 181 187 197 200 221 251 273 297 308 315 314 311 308 305 303 303 304 305 305 305 304 302 300 300 299 299
179 178 180 182 181 182 187 191 197 216 236 264 289 302 311 312 308 308 308 307 308 309 310 312 312 312 312 309 306 303 296 292
179 181 180 180 182 186 188 193 203 220 245 267 291 302 308 309 308 309 308 308 312 316 317 316 314 313 315 313 306 302 301 300
182 183 181 181 184 184 186 194 204 218 247 279 297 307 311 311 312 311 310 311 319 321 325 321 322 321 315 310 311 311 308 301
185 184 182 181 181 185 189 194 203 233 268 294 308 309 309 311 313 313 310 317 326 330 330 330 332 334 329 318 314 309 309 310
187 183 181 179 179 180 187 189 224 261 291 304 304 303 303 308 314 316 319 331 339 335 331 330 328 329 324 323 319 315 311 310
Wind_Speed_850mb
51 44 38 32 33 37 39 46 41 32 23 21 17 17 11 12 9 5 1 2 6 10 14 18 21 25 28 32 35 35 42 51
55 49 43 38 33 38 43 50 45 37 29 22 23 24 20 17 11 1 9 16 21 25 27 28 32 35 37 38 39 42 43 46
59 51 45 38 33 35 45 52 45 42 34 32 32 29 24 15 7 12 19 24 27 30 34 38 42 44 44 45 45 46 46 46
64 55 47 41 41 46 55 54 49 42 37 36 33 27 18 8 10 17 22 28 34 38 40 42 41 39 37 36 36 39 48 50
69 61 55 54 53 53 54 52 48 43 37 32 24 16 10 8 14 22 27 31 34 35 33 32 32 34 35 36 39 40 42 47
79 72 64 62 60 58 54 52 49 43 35 24 12 4 5 11 18 20 23 26 29 30 33 36 37 38 33 33 36 40 45 45
80 72 70 69 65 62 57 55 50 40 26 12 4 7 12 17 19 21 22 23 24 29 31 35 34 33 39 42 46 52 56 50
90 86 81 75 70 63 58 51 43 29 16 6 3 9 16 20 18 14 16 22 20 22 29 35 40 43 46 48 44 44 41 41
97 91 83 75 68 61 55 45 35 23 13 4 3 11 18 13 11 14 15 18 23 28 30 33 36 36 38 42 46 47 48 53
105 94 84 77 72 62 52 42 31 21 12 4 3 12 14 12 15 16 18 25 31 37 43 46 45 44 45 46 48 48 51 56
102 93 85 76 69 60 47 35 27 20 11 5 5 14 14 14 18 26 33 39 46 50 52 53 54 54 57 60 63 62 62 63
104 93 83 75 65 55 48 38 27 19 14 8 11 11 13 20 28 37 43 44 43 44 46 48 50 51 52 53 56 61 64 66
101 93 83 74 64 55 48 39 29 22 13 10 11 13 20 29 38 42 42 45 48 49 50 51 55 56 58 59 59 55 56 60
94 88 83 72 63 56 48 39 30 20 14 15 16 22 29 36 40 42 44 48 53 57 62 64 66 67 68 65 64 64 61 54
97 91 82 72 65 58 50 40 28 21 19 19 22 28 34 36 39 43 47 50 51 51 54 55 52 50 47 48 50 51 51 49
101 92 82 74 67 59 47 36 30 23 19 19 23 27 31 37 42 44 44 44 44 45 44 38 37 40 41 46 48 51 54 57
99 89 83 76 69 58 47 37 28 19 17 19 23 29 37 42 40 39 39 38 39 35 31 32 37 39 38 39 45 50 51 56
103 96 87 78 66 55 45 33 22 17 18 22 28 36 37 35 34 35 32 30 27 25 25 29 33 35 35 38 45 53 57 58
97 93 84 74 61 48 36 25 15 19 19 31 35 32 30 30 31 30 28 24 27 30 31 34 41 43 48 49 51 54 57 62
Wind_Direction_850mb
198 205 210 214 200 201 201 193 188 178 188 172 180 166 183 160 145 150 125 352 331 323 318 311 307 309 316 323 324 318 311 306
196 201 207 215 207 194 190 182 180 182 202 199 172 162 160 159 159 86 335 330 322 316 314 316 320 323 323 323 318 313 309 315
192 194 199 204 198 182 174 172 180 181 182 181 175 174 173 185 229 285 302 310 314 314 313 313 313 311 311 310 313 316 318 322
182 183 187 190 183 172 168 172 176 178 178 178 174 174 181 214 269 290 309 322 323 321 319 317 318 320 319 321 321 325 324 321
182 178 181 179 174 174 175 172 171 170 168 171 173 186 218 271 314 325 325 325 329 330 333 337 338 336 331 325 323 325 324 322
181 180 178 174 177 179 176 172 168 164 162 164 172 239 323 335 329 321 323 333 342 340 335 331 330 334 336 330 332 335 334 330
187 179 177 176 175 176 174 172 167 166 171 187 260 343 353 344 340 342 344 346 338 331 332 335 339 336 334 330 328 329 327 323
186 179 178 177 175 174 172 173 167 168 179 192 346 350 349 352 352 342 328 325 331 337 335 336 333 332 330 328 327 326 327 325
186 183 181 179 176 176 175 175 175 176 181 176 347 354 356 349 331 317 314 325 326 323 325 322 322 318 316 315 318 316 316 317
187 185 184 181 178 177 178 178 179 174 167 166 2 354 338 316 304 301 306 308 309 309 309 307 307 305 303 300 300 300 299 302
187 185 182 179 178 176 178 182 181 178 190 212 311 323 308 295 302 309 312 311 308 307 305 305 306 303 302 301 301 300 297 298
186 183 179 178 177 179 180 182 190 196 211 258 301 295 290 304 312 314 313 310 308 307 307 306 304 303 302 301 301 304 302 304
184 180 177 177 179 182 183 182 191 205 220 248 262 280 300 312 315 313 311 309 306 305 305 306 307 305 304 305 304 302 303 303
180 178 178 180 182 181 181 187 197 200 221 251 273 297 308 315 314 311 308 305 303 303 304 305 305 305 304 302 300 300 299 299
179 178 180 182 181 182 187 191 197 216 236 264 289 302 311 312 308 308 308 307 308 309 310 312 312 312 312 309 306 303 296 292
179 181 180 180 182 186 188 193 203 220 245 267 291 302 308 309 308 309 308 308 312 316 317 316 314 313 315 313 306 302 301 300
182 183 181 181 184 184 186 194 204 218 247 279 297 307 311 311 312 311 310 311 319 321 325 321 322 321 315 310 311 311 308 301
185 184 182 181 181 185 189 194 203 233 268 294 308 309 309 311 313 313 310 317 326 330 330 330 332 334 329 318 314 309 309 310
187 183 181 179 179 180 187 189 224 261 291 304 304 303 303 308 314 316 319 331 339 335 331 330 328 329 324 323 319 315 311 310